Date String (YYYY-MM-DD hh:mm:ss) UTC,Instrument flags,Ambient pressure (hPa),Sample flow (lpm),Bypass flow (lpm),Sample temperature (°C),Ambient temperature (°C),ASC tube jacket temperature (°C),LED temperature (°C),Box temperature (°C),Sample RH (%),Span deviation,Mass concentration (μg/m³),Mass concentration (μg/m³),Mass concentration (μg/m³)
DateTimeUTC,F1_M11,P_M11,Q1_M11,Q2_M11,T1_M11,T2_M11,T3_M11,T4_M11,T5_M11,U1_M11,ZSPAN_M11,X2_M11,X0_M11,X1_M11
2022-07-04 05:00:00,,0824.4,5.01,0.00,29.7,28.3,00.0,38.4,31.6,24.9,0000.0,0002.98,0006.39,0002.32
2022-07-04 05:01:00,,0824.4,5.00,0.00,29.7,27.5,00.0,38.4,31.5,24.9,0000.0,0003.04,0005.97,0002.36
2022-07-04 05:02:00,,0824.4,4.99,0.00,29.7,27.3,00.0,38.3,31.4,24.9,0000.0,0003.02,0005.75,0002.37
2022-07-04 05:03:00,,0824.3,4.99,0.00,29.6,27.3,00.0,38.3,31.3,25.0,0000.0,0002.97,0005.61,0002.37
2022-07-04 05:04:00,,0824.4,5.00,0.00,29.5,27.4,00.0,38.3,31.3,24.9,0000.0,0002.94,0005.75,0002.37
2022-07-04 05:05:00,,0824.3,4.99,0.00,29.5,27.6,00.0,38.3,31.3,25.0,0000.0,0002.90,0005.10,0002.37
2022-07-04 05:06:00,,0824.3,5.01,0.00,29.5,27.7,00.0,38.3,31.3,24.8,0000.0,0002.93,0004.59,0002.36
2022-07-04 05:07:00,,0824.3,5.00,0.00,29.5,27.8,00.0,38.3,31.3,24.8,0000.0,0002.96,0004.70,0002.38
2022-07-04 05:08:00,,0824.3,5.00,0.00,29.5,27.9,00.0,38.3,31.3,24.8,0000.0,0002.97,0004.66,0002.37
2022-07-04 05:09:00,,0824.4,5.00,0.00,29.5,28.1,00.0,38.3,31.4,24.7,0000.0,0002.99,0004.91,0002.36
2022-07-04 05:10:00,,0824.4,4.98,0.00,29.5,28.2,00.0,38.3,31.4,24.6,0000.0,0003.01,0005.66,0002.35
2022-07-04 05:11:00,,0824.2,5.00,0.00,29.5,28.2,00.0,38.3,31.4,24.5,0000.0,0003.06,0006.36,0002.35
2022-07-04 05:12:00,,0824.2,5.00,0.00,29.5,28.3,00.0,38.3,31.5,24.5,0000.0,0003.10,0006.70,0002.33
2022-07-04 05:13:00,,0824.2,5.01,0.00,29.6,28.4,00.0,38.3,31.5,24.4,0000.0,0003.09,0006.76,0002.31
2022-07-04 05:14:00,,0824.2,5.00,0.00,29.6,28.4,00.0,38.3,31.5,24.4,0000.0,0003.11,0006.80,0002.31
2022-07-04 05:15:00,,0824.1,5.00,0.00,29.6,28.5,00.0,38.3,31.5,24.4,0000.0,0003.08,0006.50,0002.32
2022-07-04 05:16:00,,0824.1,4.99,0.00,29.6,28.5,00.0,38.4,31.5,24.4,0000.0,0003.07,0006.45,0002.33
2022-07-04 05:17:00,,0824.1,5.00,0.00,29.7,28.6,00.0,38.4,31.6,24.4,0000.0,0003.09,0006.43,0002.36
2022-07-04 05:18:00,,0824.1,5.00,0.00,29.7,28.6,00.0,38.4,31.6,24.3,0000.0,0003.11,0006.53,0002.37
2022-07-04 05:19:00,,0824.1,5.00,0.00,29.7,28.7,00.0,38.4,31.6,24.3,0000.0,0003.11,0006.55,0002.37
2022-07-04 05:20:00,,0824.0,5.00,0.00,29.7,28.7,00.0,38.4,31.7,24.2,0000.0,0003.10,0006.44,0002.38
2022-07-04 05:21:00,,0824.0,5.00,0.00,29.7,28.7,00.0,38.4,31.7,24.1,0000.0,0003.06,0005.60,0002.39
2022-07-04 05:22:00,,0824.1,5.00,0.00,29.8,28.8,00.0,38.5,31.7,23.9,0000.0,0003.01,0004.75,0002.39
2022-07-04 05:23:00,,0824.1,5.01,0.00,29.8,28.7,00.0,38.5,31.7,23.9,0000.0,0002.96,0004.46,0002.41
2022-07-04 05:24:00,,0824.0,5.00,0.00,29.8,27.9,00.0,38.4,31.6,23.7,0000.0,0002.97,0004.41,0002.41
2022-07-04 05:25:00,,0824.0,4.99,0.00,29.7,27.4,00.0,38.4,31.5,23.8,0000.0,0002.97,0004.47,0002.40
2022-07-04 05:26:00,,0823.9,5.01,0.00,29.6,27.3,00.0,38.4,31.4,23.9,0000.0,0003.00,0004.57,0002.40
2022-07-04 05:27:00,,0824.0,5.00,0.00,29.6,27.4,00.0,38.4,31.3,23.9,0000.0,0003.01,0004.63,0002.39
2022-07-04 05:28:00,,0824.0,5.00,0.00,29.5,27.5,00.0,38.3,31.3,24.0,0000.0,0003.02,0004.64,0002.38
2022-07-04 05:29:00,,0824.0,4.99,0.00,29.5,27.6,00.0,38.3,31.3,23.9,0000.0,0002.99,0004.50,0002.37
2022-07-04 05:30:00,,0824.0,4.99,0.00,29.5,27.8,00.0,38.3,31.3,23.9,0000.0,0003.00,0004.52,0002.36
2022-07-04 05:31:00,,0823.9,5.00,0.00,29.5,27.9,00.0,38.3,31.3,24.0,0000.0,0002.97,0004.43,0002.35
2022-07-04 05:32:00,,0823.9,5.00,0.00,29.5,28.0,00.0,38.3,31.3,23.9,0000.0,0003.00,0004.50,0002.35
2022-07-04 05:33:00,,0823.9,5.01,0.00,29.5,28.1,00.0,38.3,31.4,23.9,0000.0,0003.00,0004.89,0002.36
2022-07-04 05:34:00,,0823.9,4.99,0.00,29.5,28.2,00.0,38.3,31.4,23.9,0000.0,0003.01,0005.02,0002.38
2022-07-04 05:35:00,,0823.9,5.01,0.00,29.5,28.2,00.0,38.3,31.4,23.9,0000.0,0002.99,0005.14,0002.39
2022-07-04 05:36:00,,0823.9,5.00,0.00,29.6,28.3,00.0,38.3,31.4,23.9,0000.0,0003.07,0005.71,0002.42
2022-07-04 05:37:00,,0823.9,5.01,0.00,29.6,28.4,00.0,38.4,31.5,23.9,0000.0,0003.06,0006.11,0002.44
2022-07-04 05:38:00,,0823.9,4.99,0.00,29.6,28.4,00.0,38.4,31.5,23.8,0000.0,0003.10,0006.18,0002.46
2022-07-04 05:39:00,,0823.9,5.01,0.00,29.6,28.5,00.0,38.4,31.5,23.7,0000.0,0003.10,0006.19,0002.47
2022-07-04 05:40:00,,0823.9,5.00,0.00,29.6,28.5,00.0,38.4,31.5,23.6,0000.0,0003.10,0006.18,0002.48
2022-07-04 05:41:00,,0824.0,5.00,0.00,29.7,28.6,00.0,38.4,31.6,23.6,0000.0,0003.09,0006.16,0002.50
2022-07-04 05:42:00,,0823.9,5.00,0.00,29.7,28.6,00.0,38.4,31.6,23.6,0000.0,0003.12,0006.25,0002.52
2022-07-04 05:43:00,,0823.9,5.00,0.00,29.7,28.7,00.0,38.4,31.6,23.6,0000.0,0003.14,0006.36,0002.52
2022-07-04 05:44:00,,0823.9,5.00,0.00,29.7,28.7,00.0,38.4,31.6,23.6,0000.0,0003.14,0006.09,0002.52
2022-07-04 05:45:00,,0823.9,4.99,0.00,29.8,28.7,00.0,38.5,31.7,23.5,0000.0,0003.12,0005.75,0002.51
2022-07-04 05:46:00,,0823.9,5.01,0.00,29.8,28.8,00.0,38.5,31.7,23.4,0000.0,0003.14,0005.77,0002.50
2022-07-04 05:47:00,,0824.0,5.00,0.00,29.8,28.8,00.0,38.5,31.7,23.4,0000.0,0003.14,0005.27,0002.50
2022-07-04 05:48:00,,0824.0,5.00,0.00,29.8,28.8,00.0,38.5,31.7,23.5,0000.0,0003.13,0004.72,0002.51
2022-07-04 05:49:00,,0823.9,5.01,0.00,29.8,28.4,00.0,38.5,31.7,23.4,0000.0,0003.11,0004.74,0002.50
2022-07-04 05:50:00,,0823.9,4.99,0.00,29.8,27.6,00.0,38.4,31.6,23.4,0000.0,0003.10,0004.66,0002.50
2022-07-04 05:51:00,,0823.9,4.99,0.00,29.7,27.4,00.0,38.4,31.5,23.5,0000.0,0003.13,0004.70,0002.51
2022-07-04 05:52:00,,0823.8,5.01,0.00,29.7,27.4,00.0,38.4,31.4,23.5,0000.0,0003.14,0004.70,0002.51
2022-07-04 05:53:00,,0823.8,5.00,0.00,29.6,27.5,00.0,38.4,31.4,23.6,0000.0,0003.12,0004.60,0002.52
2022-07-04 05:54:00,,0823.8,5.00,0.00,29.6,27.6,00.0,38.4,31.3,23.7,0000.0,0003.12,0004.55,0002.54
2022-07-04 05:55:00,,0823.8,4.99,0.00,29.6,27.8,00.0,38.4,31.3,23.8,0000.0,0003.15,0004.81,0002.54
2022-07-04 05:56:00,,0823.8,5.00,0.00,29.6,27.9,00.0,38.4,31.4,23.7,0000.0,0003.17,0004.97,0002.56
2022-07-04 05:57:00,,0823.7,4.99,0.00,29.6,28.0,00.0,38.4,31.4,23.6,0000.0,0003.17,0004.96,0002.56
2022-07-04 05:58:00,,0823.7,5.00,0.00,29.6,28.1,00.0,38.4,31.4,23.6,0000.0,0003.14,0004.96,0002.55
2022-07-04 05:59:00,,0823.7,5.00,0.00,29.6,28.2,00.0,38.4,31.5,23.7,0000.0,0003.17,0005.16,0002.54
